| time (UTC) | temp C | wind direction | speed KPH | gust KPH | rain 1hr cm | rain 24hr cm | rain mn cm | humidity % | barometer mb |
| 20260503031014 | 10 | 275 | 3.2 | 3.2 | 0.00 | 0.00 | 0.00 | 48 | 1017.2 |
| 20260503030512 | 10 | 266 | 3.2 | 3.2 | 0.00 | 0.00 | 0.00 | 48 | 1017.1 |
| 20260503030029 | 10 | 257 | 3.2 | 3.2 | 0.00 | 0.00 | 0.00 | 47 | 1017.1 |
| 20260503025513 | 11 | 257 | 3.2 | 3.2 | 0.00 | 0.00 | 0.00 | 47 | 1017.1 |
| 20260503025013 | 11 | 263 | 3.2 | 3.2 | 0.00 | 0.00 | 0.00 | 46 | 1017.1 |
| 20260503024528 | 11 | 262 | 3.2 | 3.2 | 0.00 | 0.00 | 0.00 | 47 | 1017.1 |
| 20260503024013 | 11 | 252 | 3.2 | 3.2 | 0.00 | 0.00 | 0.00 | 47 | 1017.2 |
| 20260503023550 | 11 | 257 | 3.2 | 4.8 | 0.00 | 0.00 | 0.00 | 46 | 1017.2 |
| 20260503023027 | 11 | 257 | 3.2 | 4.8 | 0.00 | 0.00 | 0.00 | 46 | 1017.2 |
| 20260503022513 | 11 | 262 | 3.2 | 3.2 | 0.00 | 0.00 | 0.00 | 46 | 1017.3 |
| 20260503022012 | 12 | 261 | 3.2 | 4.8 | 0.00 | 0.00 | 0.00 | 47 | 1017.3 |
| 20260503021527 | 12 | 262 | 3.2 | 4.8 | 0.00 | 0.00 | 0.00 | 47 | 1017.4 |
| 20260503021013 | 12 | 262 | 3.2 | 4.8 | 0.00 | 0.00 | 0.00 | 45 | 1017.3 |
| 20260503020511 | 12 | 258 | 3.2 | 4.8 | 0.00 | 0.00 | 0.00 | 45 | 1017.3 |
| 20260503020030 | 12 | 262 | 3.2 | 4.8 | 0.00 | 0.00 | 0.00 | 47 | 1017.4 |
| 20260503015513 | 13 | 256 | 1.6 | 3.2 | 0.00 | 0.00 | 0.00 | 47 | 1017.4 |
| 20260503015015 | 13 | 255 | 1.6 | 3.2 | 0.00 | 0.00 | 0.00 | 47 | 1017.4 |
| 20260503014527 | 13 | 258 | 1.6 | 3.2 | 0.00 | 0.00 | 0.00 | 48 | 1017.4 |
| 20260503014013 | 13 | 265 | 1.6 | 4.8 | 0.00 | 0.00 | 0.00 | 46 | 1017.5 |
| 20260503013513 | 13 | 260 | 1.6 | 4.8 | 0.00 | 0.00 | 0.00 | 46 | 1017.4 |
| 20260503013029 | 13 | 262 | 1.6 | 3.2 | 0.00 | 0.00 | 0.00 | 45 | 1017.4 |
| 20260503012510 | 13 | 260 | 1.6 | 3.2 | 0.00 | 0.00 | 0.00 | 45 | 1017.4 |
| 20260503012012 | 14 | 264 | 1.6 | 3.2 | 0.00 | 0.00 | 0.00 | 46 | 1017.3 |
| 20260503011533 | 14 | 252 | 1.6 | 3.2 | 0.00 | 0.00 | 0.00 | 46 | 1017.4 |
| 20260503011013 | 14 | 255 | 1.6 | 3.2 | 0.00 | 0.00 | 0.00 | 45 | 1017.4 |
| 20260503010513 | 15 | 260 | 1.6 | 3.2 | 0.00 | 0.00 | 0.00 | 45 | 1017.4 |
| 20260503010031 | 15 | 258 | 1.6 | 1.6 | 0.00 | 0.00 | 0.00 | 44 | 1017.5 |
| 20260503005513 | 16 | 259 | 1.6 | 3.2 | 0.00 | 0.00 | 0.00 | 38 | 1017.5 |
| 20260503005012 | 16 | 261 | 1.6 | 3.2 | 0.00 | 0.00 | 0.00 | 39 | 1017.5 |
| 20260503004530 | 16 | 210 | 1.6 | 4.8 | 0.00 | 0.00 | 0.00 | 30 | 1017.6 |
| 20260503004009 | 16 | 236 | 0.0 | 4.8 | 0.00 | 0.00 | 0.00 | 37 | 1017.5 |
| 20260503003510 | 16 | 224 | 1.6 | 4.8 | 0.00 | 0.00 | 0.00 | 35 | 1017.6 |
| 20260503003030 | 17 | 0 | 0.0 | 3.2 | 0.00 | 0.00 | 0.00 | 33 | 1017.5 |
| 20260503002515 | 17 | 271 | 0.0 | 3.2 | 0.00 | 0.00 | 0.00 | 34 | 1017.6 |
| 20260503002012 | 17 | 228 | 0.0 | 4.8 | 0.00 | 0.00 | 0.00 | 31 | 1017.5 |
| 20260503001529 | 18 | 0 | 0.0 | 4.8 | 0.00 | 0.00 | 0.00 | 27 | 1017.6 |
| 20260503001011 | 18 | 97 | 0.0 | 4.8 | 0.00 | 0.00 | 0.00 | 29 | 1017.6 |
| 20260503000513 | 18 | 0 | 0.0 | 6.4 | 0.00 | 0.00 | 0.00 | 31 | 1017.6 |
| 20260503000030 | 18 | 216 | 3.2 | 6.4 | 0.00 | 0.00 | 0.00 | 27 | 1017.5 |
| 20260502235512 | 18 | 0 | 1.6 | 11.3 | 0.00 | 0.00 | 0.00 | 23 | 1017.6 |
| 20260502235010 | 18 | 179 | 1.6 | 11.3 | 0.00 | 0.00 | 0.00 | 28 | 1017.6 |
| 20260502234545 | 18 | 58 | 3.2 | 11.3 | 0.00 | 0.00 | 0.00 | 24 | 1017.6 |
| 20260502234013 | 18 | 51 | 1.6 | 4.8 | 0.00 | 0.00 | 0.00 | 26 | 1017.6 |
| 20260502233509 | 18 | 0 | 0.0 | 1.6 | 0.00 | 0.00 | 0.00 | 36 | 1017.7 |
| 20260502233027 | 18 | 0 | 0.0 | 1.6 | 0.00 | 0.00 | 0.00 | 35 | 1017.8 |
| 20260502232510 | 18 | 0 | 0.0 | 3.2 | 0.00 | 0.00 | 0.00 | 34 | 1017.7 |
| 20260502232012 | 19 | 230 | 0.0 | 6.4 | 0.00 | 0.00 | 0.00 | 31 | 1017.8 |
| 20260502231529 | 19 | 72 | 1.6 | 8.0 | 0.00 | 0.00 | 0.00 | 27 | 1017.8 |
| 20260502231014 | 20 | 49 | 3.2 | 8.0 | 0.00 | 0.00 | 0.00 | 25 | 1017.8 |
| 20260502230513 | 20 | 73 | 0.0 | 8.0 | 0.00 | 0.00 | 0.00 | 28 | 1017.9 |
| 20260502230028 | 20 | 65 | 3.2 | 8.0 | 0.00 | 0.00 | 0.00 | 24 | 1018.1 |
| 20260502225514 | 20 | 70 | 1.6 | 8.0 | 0.00 | 0.00 | 0.00 | 26 | 1018.1 |
| 20260502225013 | 20 | 245 | 0.0 | 3.2 | 0.00 | 0.00 | 0.00 | 25 | 1018.2 |
| 20260502224529 | 20 | 298 | 0.0 | 9.7 | 0.00 | 0.00 | 0.00 | 29 | 1018.2 |
| 20260502224013 | 20 | 203 | 1.6 | 11.3 | 0.00 | 0.00 | 0.00 | 24 | 1018.2 |
| 20260502223515 | 20 | 58 | 4.8 | 11.3 | 0.00 | 0.00 | 0.00 | 26 | 1018.3 |
| 20260502223030 | 20 | 0 | 0.0 | 11.3 | 0.00 | 0.00 | 0.00 | 25 | 1018.3 |
| 20260502222513 | 20 | 66 | 4.8 | 11.3 | 0.00 | 0.00 | 0.00 | 23 | 1018.4 |
| 20260502222012 | 20 | 11 | 3.2 | 8.0 | 0.00 | 0.00 | 0.00 | 27 | 1018.4 |
| 20260502221528 | 20 | 76 | 1.6 | 8.0 | 0.00 | 0.00 | 0.00 | 26 | 1018.4 |
| 20260502221011 | 20 | 0 | 1.6 | 6.4 | 0.00 | 0.00 | 0.00 | 26 | 1018.4 |
| 20260502220513 | 20 | 58 | 1.6 | 11.3 | 0.00 | 0.00 | 0.00 | 24 | 1018.3 |
| 20260502220030 | 20 | 66 | 4.8 | 11.3 | 0.00 | 0.00 | 0.00 | 24 | 1018.4 |
| 20260502215513 | 20 | 82 | 1.6 | 9.7 | 0.00 | 0.00 | 0.00 | 23 | 1018.4 |
| 20260502215014 | 20 | 311 | 6.4 | 12.9 | 0.00 | 0.00 | 0.00 | 22 | 1018.4 |
| 20260502214539 | 20 | 24 | 6.4 | 12.9 | 0.00 | 0.00 | 0.00 | 23 | 1018.5 |
| 20260502214016 | 20 | 84 | 4.8 | 11.3 | 0.00 | 0.00 | 0.00 | 25 | 1018.5 |
| 20260502213512 | 20 | 83 | 3.2 | 11.3 | 0.00 | 0.00 | 0.00 | 22 | 1018.6 |
| 20260502213030 | 20 | 76 | 3.2 | 8.0 | 0.00 | 0.00 | 0.00 | 23 | 1018.6 |
| 20260502212513 | 20 | 65 | 3.2 | 9.7 | 0.00 | 0.00 | 0.00 | 23 | 1018.6 |
| 20260502212013 | 20 | 20 | 4.8 | 9.7 | 0.00 | 0.00 | 0.00 | 20 | 1018.7 |
| 20260502211534 | 20 | 77 | 1.6 | 12.9 | 0.00 | 0.00 | 0.00 | 22 | 1018.9 |
| 20260502211010 | 20 | 60 | 6.4 | 12.9 | 0.00 | 0.00 | 0.00 | 20 | 1019.0 |
| 20260502210513 | 20 | 0 | 1.6 | 8.0 | 0.00 | 0.00 | 0.00 | 23 | 1019.2 |
| 20260502210031 | 20 | 58 | 0.0 | 6.4 | 0.00 | 0.00 | 0.00 | 24 | 1019.2 |
| 20260502205516 | 20 | 27 | 3.2 | 9.7 | 0.00 | 0.00 | 0.00 | 22 | 1019.2 |
| 20260502205011 | 20 | 248 | 1.6 | 9.7 | 0.00 | 0.00 | 0.00 | 25 | 1019.2 |
| 20260502204526 | 20 | 70 | 3.2 | 6.4 | 0.00 | 0.00 | 0.00 | 23 | 1019.2 |
| 20260502204014 | 19 | 45 | 3.2 | 6.4 | 0.00 | 0.00 | 0.00 | 25 | 1019.3 |
| 20260502203511 | 19 | 43 | 0.0 | 8.0 | 0.00 | 0.00 | 0.00 | 25 | 1019.3 |
| 20260502203028 | 18 | 9 | 3.2 | 9.7 | 0.00 | 0.00 | 0.00 | 23 | 1019.4 |
| 20260502202512 | 18 | 84 | 4.8 | 9.7 | 0.00 | 0.00 | 0.00 | 26 | 1019.4 |
| 20260502202012 | 19 | 67 | 3.2 | 9.7 | 0.00 | 0.00 | 0.00 | 25 | 1019.3 |
| 20260502201530 | 18 | 63 | 3.2 | 9.7 | 0.00 | 0.00 | 0.00 | 26 | 1019.4 |
| 20260502201012 | 18 | 311 | 4.8 | 11.3 | 0.00 | 0.00 | 0.00 | 27 | 1019.4 |
| 20260502200512 | 18 | 53 | 6.4 | 11.3 | 0.00 | 0.00 | 0.00 | 27 | 1019.4 |
| 20260502200030 | 19 | 56 | 3.2 | 6.4 | 0.00 | 0.00 | 0.00 | 27 | 1019.4 |
| 20260502195512 | 18 | 72 | 1.6 | 8.0 | 0.00 | 0.00 | 0.00 | 27 | 1019.4 |
| 20260502195013 | 18 | 94 | 1.6 | 11.3 | 0.00 | 0.00 | 0.00 | 28 | 1019.5 |
| 20260502194529 | 18 | 25 | 4.8 | 11.3 | 0.00 | 0.00 | 0.00 | 29 | 1019.5 |
| 20260502194013 | 18 | 74 | 3.2 | 9.7 | 0.00 | 0.00 | 0.00 | 27 | 1019.6 |
| 20260502193510 | 18 | 23 | 3.2 | 9.7 | 0.00 | 0.00 | 0.00 | 28 | 1019.6 |
| 20260502193028 | 18 | 88 | 3.2 | 12.9 | 0.00 | 0.00 | 0.00 | 28 | 1019.7 |
| 20260502192512 | 18 | 143 | 4.8 | 12.9 | 0.00 | 0.00 | 0.00 | 29 | 1019.7 |
| 20260502192012 | 17 | 98 | 3.2 | 17.7 | 0.00 | 0.00 | 0.00 | 28 | 1019.7 |
| 20260502191530 | 17 | 62 | 6.4 | 17.7 | 0.00 | 0.00 | 0.00 | 27 | 1019.7 |
| 20260502191012 | 17 | 58 | 8.0 | 17.7 | 0.00 | 0.00 | 0.00 | 26 | 1019.7 |
| 20260502190511 | 17 | 53 | 8.0 | 14.5 | 0.00 | 0.00 | 0.00 | 26 | 1019.8 |
| 20260502190032 | 17 | 38 | 4.8 | 11.3 | 0.00 | 0.00 | 0.00 | 30 | 1019.8 |
| 20260502185510 | 17 | 65 | 4.8 | 12.9 | 0.00 | 0.00 | 0.00 | 30 | 1019.9 |
| 20260502185012 | 17 | 87 | 3.2 | 17.7 | 0.00 | 0.00 | 0.00 | 33 | 1019.9 |
| 20260502184527 | 17 | 119 | 6.4 | 17.7 | 0.00 | 0.00 | 0.00 | 33 | 1019.9 |
| 20260502184011 | 16 | 42 | 6.4 | 17.7 | 0.00 | 0.00 | 0.00 | 32 | 1020.0 |
| 20260502183511 | 16 | 63 | 6.4 | 9.7 | 0.00 | 0.00 | 0.00 | 33 | 1020.1 |
| 20260502183029 | 16 | 88 | 3.2 | 9.7 | 0.00 | 0.00 | 0.00 | 35 | 1020.2 |
| 20260502182515 | 16 | 81 | 3.2 | 9.7 | 0.00 | 0.00 | 0.00 | 40 | 1020.3 |
| 20260502182012 | 15 | 39 | 4.8 | 9.7 | 0.00 | 0.00 | 0.00 | 39 | 1020.3 |
| 20260502181534 | 15 | 53 | 4.8 | 9.7 | 0.00 | 0.00 | 0.00 | 43 | 1020.3 |
| 20260502181013 | 15 | 248 | 3.2 | 8.0 | 0.00 | 0.00 | 0.00 | 47 | 1020.2 |
| 20260502180512 | 14 | 62 | 3.2 | 8.0 | 0.00 | 0.00 | 0.00 | 47 | 1020.3 |
| 20260502170510 | 12 | 77 | 3.2 | 9.7 | 0.00 | 0.00 | 0.00 | 58 | 1020.7 |
| 20260502164012 | 10 | 34 | 1.6 | 6.4 | 0.00 | 0.00 | 0.00 | 64 | 1020.9 |
| 20260502163512 | 10 | 70 | 3.2 | 6.4 | 0.00 | 0.00 | 0.00 | 64 | 1020.8 |
| 20260502163032 | 10 | 79 | 1.6 | 4.8 | 0.00 | 0.00 | 0.00 | 67 | 1020.9 |
| 20260502162513 | 9 | 32 | 3.2 | 4.8 | 0.00 | 0.00 | 0.00 | 66 | 1020.8 |
| 20260502162011 | 8 | 77 | 1.6 | 4.8 | 0.00 | 0.00 | 0.00 | 68 | 1020.8 |
| 20260502161527 | 8 | 24 | 3.2 | 4.8 | 0.00 | 0.00 | 0.00 | 69 | 1020.7 |
| 20260502161015 | 8 | 68 | 1.6 | 3.2 | 0.00 | 0.00 | 0.00 | 72 | 1020.8 |
| 20260502160513 | 8 | 23 | 1.6 | 3.2 | 0.00 | 0.00 | 0.00 | 74 | 1020.8 |
| 20260502152013 | 6 | 64 | 0.0 | 3.2 | 0.00 | 0.00 | 0.00 | 79 | 1020.9 |
| 20260502151529 | 6 | 39 | 1.6 | 3.2 | 0.00 | 0.00 | 0.00 | 78 | 1020.9 |
| 20260502151012 | 6 | 34 | 0.0 | 3.2 | 0.00 | 0.00 | 0.00 | 79 | 1020.9 |
| 20260502150510 | 6 | 78 | 1.6 | 3.2 | 0.00 | 0.00 | 0.00 | 78 | 1020.8 |
| 20260502130512 | 0 | 0 | 0.0 | 0.0 | 0.00 | 0.00 | 0.00 | 88 | 1020.8 |
| 20260502123512 | 1 | 0 | 0.0 | 0.0 | 0.00 | 0.00 | 0.00 | 88 | 1020.9 |
| 20260502123028 | 0 | 0 | 0.0 | 0.0 | 0.00 | 0.00 | 0.00 | 88 | 1020.8 |
| 20260502122511 | 0 | 0 | 0.0 | 0.0 | 0.00 | 0.00 | 0.00 | 88 | 1020.8 |
| 20260502122012 | 0 | 0 | 0.0 | 0.0 | 0.00 | 0.00 | 0.00 | 87 | 1020.6 |
| 20260502121538 | 1 | 0 | 0.0 | 0.0 | 0.00 | 0.00 | 0.00 | 88 | 1020.7 |
| 20260502121011 | 1 | 0 | 0.0 | 0.0 | 0.00 | 0.00 | 0.00 | 87 | 1020.7 |
| 20260502120513 | 1 | 0 | 0.0 | 0.0 | 0.00 | 0.00 | 0.00 | 88 | 1020.7 |
| 20260502115514 | 1 | 0 | 0.0 | 0.0 | 0.00 | 0.00 | 0.00 | 88 | 1020.7 |
| 20260502115013 | 1 | 0 | 0.0 | 0.0 | 0.00 | 0.00 | 0.00 | 87 | 1020.7 |
| 20260502114528 | 1 | 0 | 0.0 | 0.0 | 0.00 | 0.00 | 0.00 | 87 | 1020.7 |
| 20260502114012 | 1 | 0 | 0.0 | 0.0 | 0.00 | 0.00 | 0.00 | 87 | 1020.6 |
| 20260502113512 | 1 | 0 | 0.0 | 0.0 | 0.00 | 0.00 | 0.00 | 87 | 1020.6 |
| 20260502113026 | 1 | 0 | 0.0 | 0.0 | 0.00 | 0.00 | 0.00 | 86 | 1020.7 |
| 20260502112511 | 1 | 0 | 0.0 | 0.0 | 0.00 | 0.00 | 0.00 | 86 | 1020.8 |
| 20260502112010 | 2 | 0 | 0.0 | 0.0 | 0.00 | 0.00 | 0.00 | 85 | 1020.8 |
| 20260502111532 | 2 | 0 | 0.0 | 0.0 | 0.00 | 0.00 | 0.00 | 85 | 1020.8 |
| 20260502111011 | 2 | 0 | 0.0 | 0.0 | 0.00 | 0.00 | 0.00 | 85 | 1020.8 |
| 20260502110511 | 2 | 0 | 0.0 | 0.0 | 0.00 | 0.00 | 0.00 | 84 | 1020.7 |
| 20260502110035 | 2 | 0 | 0.0 | 0.0 | 0.00 | 0.00 | 0.00 | 85 | 1020.8 |
| 20260502105513 | 2 | 0 | 0.0 | 0.0 | 0.00 | 0.00 | 0.00 | 84 | 1020.8 |
| 20260502105015 | 2 | 0 | 0.0 | 0.0 | 0.00 | 0.00 | 0.00 | 82 | 1020.8 |
| 20260502104528 | 2 | 0 | 0.0 | 0.0 | 0.00 | 0.00 | 0.00 | 83 | 1020.8 |
| 20260502104012 | 2 | 0 | 0.0 | 0.0 | 0.00 | 0.00 | 0.00 | 82 | 1020.9 |
| 20260502103510 | 2 | 0 | 0.0 | 0.0 | 0.00 | 0.00 | 0.00 | 82 | 1020.9 |
| 20260502103026 | 2 | 0 | 0.0 | 0.0 | 0.00 | 0.00 | 0.00 | 83 | 1020.9 |
| 20260502102511 | 3 | 0 | 0.0 | 0.0 | 0.00 | 0.00 | 0.00 | 81 | 1020.9 |
| 20260502102013 | 3 | 0 | 0.0 | 0.0 | 0.00 | 0.00 | 0.00 | 80 | 1020.9 |
| 20260502101526 | 3 | 0 | 0.0 | 0.0 | 0.00 | 0.00 | 0.00 | 80 | 1021.0 |
| 20260502101010 | 3 | 0 | 0.0 | 0.0 | 0.00 | 0.00 | 0.00 | 78 | 1020.9 |
| 20260502100510 | 2 | 0 | 0.0 | 0.0 | 0.00 | 0.00 | 0.00 | 78 | 1021.0 |
| 20260502091527 | 3 | 0 | 0.0 | 0.0 | 0.00 | 0.00 | 0.00 | 78 | 1021.0 |
| 20260502091011 | 3 | 0 | 0.0 | 0.0 | 0.00 | 0.00 | 0.00 | 76 | 1021.0 |
| 20260502090512 | 3 | 0 | 0.0 | 0.0 | 0.00 | 0.00 | 0.00 | 74 | 1021.1 |
| 20260502071530 | 5 | 271 | 0.0 | 0.0 | 0.00 | 0.00 | 0.00 | 66 | 1021.3 |
| 20260502071010 | 6 | 271 | 0.0 | 1.6 | 0.00 | 0.00 | 0.00 | 67 | 1021.2 |
| 20260502070513 | 6 | 271 | 0.0 | 1.6 | 0.00 | 0.00 | 0.00 | 67 | 1021.2 |
| 20260502070027 | 6 | 271 | 0.0 | 1.6 | 0.00 | 0.00 | 0.00 | 68 | 1021.1 |
| 20260502065513 | 6 | 271 | 0.0 | 1.6 | 0.00 | 0.00 | 0.00 | 69 | 1021.2 |
| 20260502065017 | 6 | 271 | 0.0 | 1.6 | 0.00 | 0.00 | 0.00 | 69 | 1021.1 |
| 20260502064531 | 6 | 271 | 0.0 | 0.0 | 0.00 | 0.00 | 0.00 | 70 | 1021.1 |
| 20260502064009 | 6 | 271 | 0.0 | 1.6 | 0.00 | 0.00 | 0.00 | 70 | 1021.1 |
| 20260502063510 | 6 | 271 | 0.0 | 1.6 | 0.00 | 0.00 | 0.00 | 70 | 1021.2 |
| 20260502063031 | 6 | 271 | 0.0 | 0.0 | 0.00 | 0.00 | 0.00 | 69 | 1021.1 |
| 20260502062511 | 6 | 271 | 0.0 | 1.6 | 0.00 | 0.00 | 0.00 | 69 | 1021.2 |
| 20260502062013 | 6 | 271 | 0.0 | 1.6 | 0.00 | 0.00 | 0.00 | 69 | 1021.1 |
| 20260502061526 | 6 | 271 | 0.0 | 1.6 | 0.00 | 0.00 | 0.00 | 69 | 1021.1 |
| 20260502061012 | 6 | 271 | 0.0 | 1.6 | 0.00 | 0.00 | 0.00 | 69 | 1021.1 |
| 20260502060511 | 6 | 271 | 0.0 | 1.6 | 0.00 | 0.00 | 0.00 | 69 | 1021.1 |
| 20260502060027 | 6 | 0 | 0.0 | 1.6 | 0.00 | 0.00 | 0.00 | 69 | 1021.1 |
| 20260502055512 | 6 | 271 | 0.0 | 1.6 | 0.00 | 0.00 | 0.00 | 68 | 1021.1 |
| 20260502055011 | 6 | 271 | 0.0 | 0.0 | 0.00 | 0.00 | 0.00 | 68 | 1021.2 |
| 20260502054536 | 6 | 271 | 0.0 | 1.6 | 0.00 | 0.00 | 0.00 | 68 | 1021.2 |
| 20260502054014 | 6 | 271 | 0.0 | 1.6 | 0.00 | 0.00 | 0.00 | 68 | 1021.1 |
| 20260502053512 | 7 | 271 | 0.0 | 1.6 | 0.00 | 0.00 | 0.00 | 67 | 1021.2 |
| 20260502053035 | 7 | 271 | 0.0 | 1.6 | 0.00 | 0.00 | 0.00 | 68 | 1021.2 |
| 20260502052512 | 7 | 271 | 0.0 | 1.6 | 0.00 | 0.00 | 0.00 | 67 | 1021.2 |
| 20260502052011 | 7 | 271 | 0.0 | 1.6 | 0.00 | 0.00 | 0.00 | 67 | 1021.2 |
| 20260502051530 | 7 | 271 | 0.0 | 1.6 | 0.00 | 0.00 | 0.00 | 66 | 1021.2 |
| 20260502051010 | 7 | 272 | 0.0 | 1.6 | 0.00 | 0.00 | 0.00 | 66 | 1021.2 |
| 20260502050515 | 7 | 272 | 0.0 | 1.6 | 0.00 | 0.00 | 0.00 | 66 | 1021.1 |
| 20260502050030 | 7 | 272 | 0.0 | 1.6 | 0.00 | 0.00 | 0.00 | 67 | 1021.0 |
| 20260502045511 | 7 | 273 | 0.0 | 1.6 | 0.00 | 0.00 | 0.00 | 66 | 1021.0 |
| 20260502045011 | 7 | 274 | 0.0 | 1.6 | 0.00 | 0.00 | 0.00 | 67 | 1021.1 |
| 20260502044528 | 7 | 274 | 0.0 | 1.6 | 0.00 | 0.00 | 0.00 | 67 | 1021.0 |
| 20260502044011 | 7 | 272 | 1.6 | 1.6 | 0.00 | 0.00 | 0.00 | 66 | 1021.0 |
| 20260502043508 | 7 | 265 | 1.6 | 1.6 | 0.00 | 0.00 | 0.00 | 65 | 1021.0 |
| 20260502043027 | 7 | 266 | 0.0 | 1.6 | 0.00 | 0.00 | 0.00 | 66 | 1021.1 |
| 20260502042509 | 7 | 269 | 0.0 | 1.6 | 0.00 | 0.00 | 0.00 | 66 | 1021.0 |
| 20260502042012 | 7 | 269 | 1.6 | 1.6 | 0.00 | 0.00 | 0.00 | 66 | 1021.0 |
| 20260502041529 | 7 | 269 | 1.6 | 1.6 | 0.00 | 0.00 | 0.00 | 65 | 1021.0 |
| 20260502041012 | 7 | 264 | 1.6 | 1.6 | 0.00 | 0.00 | 0.00 | 65 | 1020.9 |
| 20260502040510 | 7 | 279 | 1.6 | 1.6 | 0.00 | 0.00 | 0.00 | 64 | 1021.0 |
| 20260502040028 | 7 | 279 | 1.6 | 3.2 | 0.00 | 0.00 | 0.00 | 64 | 1020.9 |
| 20260502035512 | 8 | 266 | 1.6 | 3.2 | 0.00 | 0.00 | 0.00 | 63 | 1020.9 |
| 20260502035013 | 8 | 265 | 1.6 | 3.2 | 0.00 | 0.00 | 0.00 | 62 | 1020.9 |
| 20260502034528 | 8 | 259 | 1.6 | 3.2 | 0.00 | 0.00 | 0.00 | 62 | 1020.9 |
| 20260502034013 | 8 | 262 | 1.6 | 3.2 | 0.00 | 0.00 | 0.00 | 62 | 1020.8 |
| 20260502033512 | 8 | 258 | 1.6 | 3.2 | 0.00 | 0.00 | 0.00 | 63 | 1020.7 |
| 20260502033040 | 8 | 259 | 1.6 | 1.6 | 0.00 | 0.00 | 0.00 | 62 | 1020.7 |
| 20260502032509 | 8 | 252 | 1.6 | 1.6 | 0.00 | 0.00 | 0.00 | 63 | 1020.7 |
| 20260502032015 | 8 | 255 | 1.6 | 1.6 | 0.00 | 0.00 | 0.00 | 63 | 1020.6 |
| 20260502031530 | 8 | 271 | 0.0 | 3.2 | 0.00 | 0.00 | 0.00 | 63 | 1020.6 |